Location: Cherry Springs State Park
(41.6616°N, 77.8240°W)
Time: 04:42:29
(UTC-04:00)

Daily predictions for brighter satellites

Satellite Brightness Start Highest point End
(mag) Time Altitude Azimuth Time Altitude Azimuth Time Altitude Azimuth
ATLAS 2AS CENTAUR R/B 4.2 02:33:48 36° NE 02:33:48 36° NE 02:38:10 10° NE
Cosmos 2333 Rocket 4.4 03:05:42 10° N 03:09:58 21° NE 03:14:10 10° E
Cosmos 2237 Rocket 4.1 03:30:32 10° N 03:35:11 25° NE 03:39:48 10° ESE
Lacrosse 5 4.2 03:38:47 18° E 03:38:47 18° E 03:40:40 10° ENE
ATLAS 5 CENTAUR R/B 3.9 03:37:21 19° N 03:40:48 33° NE 03:46:28 10° ESE
ARIANE 5 R/B 4.3 03:47:40 10° NNE 03:49:50 26° NNE 03:49:50 26° NNE
NOSS 3-4 (A) 4.2 04:00:48 47° ESE 04:00:48 47° ESE 04:06:59 10° NE
NOSS 3-4 (C) 4.2 04:00:53 47° ESE 04:00:54 47° ESE 04:07:05 10° NE
Gbstr 26 Del rocket 4.3 04:03:06 77° ESE 04:03:06 77° ESE 04:10:28 10° SE
Cosmos 2344 3.5 04:06:57 78° SSW 04:07:34 86° ESE 04:16:18 10° NE
Cosmos 2227 Rocket 3.2 04:07:44 40° ESE 04:08:01 40° ESE 04:13:17 10° NE
CZ-2D R/B 3.2 04:04:44 10° NNE 04:07:49 37° N 04:07:49 37° N
Cosmos 2219 Rocket 4.3 04:08:21 10° NNW 04:20:32 - SSE 04:09:24 16° NNW
SL-16 R/B 3.9 04:20:48 26° NNW 04:20:48 26° NNW 04:23:26 10° NNW
Cosmos 2297 Rocket 3.5 04:15:57 30° SE 04:17:26 34° ESE 04:22:30 10° NE
ATLAS 2AS CENTAUR R/B 4.0 04:21:15 30° NW 04:21:59 31° NW 04:29:04 10° NNE
NOSS 0 Rocket 3.8 04:23:15 10° NNW 04:29:31 86° ENE 04:35:46 10° SSE
MOS 1-B 4.2 04:26:28 10° NNE 04:32:12 84° NW 04:32:12 84° NW
Cosmos 1934 Rocket 4.1 04:27:09 10° NNW 04:32:20 58° NW 04:32:20 58° NW
Resurs 1-4 Rocket 3.1 04:30:46 10° N 04:34:07 35° NNW 04:34:07 35° NNW
Cosmos 1605 Rocket 3.9 04:30:12 10° N 04:36:22 89° ENE 04:39:10 35° S
BREEZE-M DEB (TANK) 3.6 04:41:55 55° SE 04:41:55 55° SE 04:44:34 10° ENE
Cosmos 2082 3.6 04:46:49 59° S 04:47:55 81° ESE 04:53:34 10° NNE
NOSS 3-2 (A) 3.9 04:42:22 10° NW 04:49:53 74° WSW 04:57:56 10° SSE
Cosmos 1025 Rocket 3.3 04:51:03 59° SE 04:51:34 65° E 04:55:52 10° NNE
CZ-4B R/B 3.6 04:47:44 10° NNE 04:52:06 60° E 04:53:24 42° SSE
Cosmos 923 Rocket 3.9 04:47:07 10° NNW 04:54:41 36° S 04:57:46 10° S
Lacrosse 5 rocket 3.3 04:53:31 22° NNW 04:53:31 22° NNW 04:56:41 10° NNE
Cosmos 2333 Rocket 2.1 04:49:05 10° NNW 04:54:45 66° WSW 05:00:21 10° S
BREEZE-M DEB (TANK) 3.9 04:58:54 22° N 04:59:10 22° NNE 05:01:24 10° ENE
Okean O Rocket 1.4 04:55:55 10° N 05:00:20 81° WNW 05:00:24 81° W
DELTA 2 R/B (1) 4.3 05:01:53 37° S 05:03:09 42° SSE 05:08:23 10° E
Cosmos 1606 Rocket 3.6 05:01:25 10° N 05:05:48 74° E 05:10:08 10° SSE
Okean 2 4.2 05:03:13 17° SSE 05:06:12 51° E 05:10:13 10° NNE
Meteor 1-19 Rocket 4.1 05:04:57 31° SSW 05:07:47 81° W 05:13:25 10° N
USA 215 4.2 05:04:58 10° S 05:08:45 26° SSW 05:08:45 26° SSW
Cosmos 2061 Rocket 4.4 05:04:36 10° N 05:10:52 66° E 05:17:12 10° SSE
Delta 2 Rocket 4.2 05:13:34 31° SSE 05:13:34 31° SSE 05:16:20 10° ESE
Cosmos 2100 Rocket 4.1 05:08:06 10° N 05:14:21 77° E 05:20:38 10° SSE
Cosmos 1802 Rocket 4.5 05:08:20 10° N 05:14:27 61° E 05:20:29 10° SSE
Cosmos 1898 Rocket 4.2 05:09:34 10° S 05:14:44 53° ESE 05:19:53 10° NNE
Cosmos 1726 Rocket 3.5 05:12:26 10° N 05:16:52 82° E 05:21:13 10° S
CZ-4B R/B 3.1 05:11:41 10° N 05:17:06 77° WNW 05:20:48 22° SSW
CZ-2C R/B 3.7 05:17:20 39° SSW 05:18:39 53° W 05:23:12 10° NNW
Lacrosse 5 2.0 05:18:00 45° W 05:19:16 60° NW 05:24:18 10° NE
Cosmos 2237 Rocket 2.3 05:14:05 10° NW 05:19:31 50° WSW 05:24:54 10° S
Cosmos 1666 2.7 05:15:43 10° N 05:19:37 84° E 05:23:26 10° S
Meteor 2-4 Rocket 3.7 05:17:26 11° S 05:23:07 83° W 05:29:05 10° N
Tiangong 1 1.0 05:23:36 75° ENE 05:23:36 75° ENE 05:26:26 10° ENE
ATLAS 5 CENTAUR R/B 2.5 05:19:54 10° NW 05:25:50 55° WSW 05:32:09 10° SSE
CENTAUR R/B 3.7 05:18:28 10° NNW 05:26:08 58° NE 05:34:17 10° SE
Cosmos 292 Rocket 3.7 05:22:18 10° NNW 05:27:11 83° WSW 05:32:02 10° SSE
Meteor 1-23 Rocket 4.1 05:21:36 10° S 05:27:12 84° W 05:32:56 10° N
Cosmos 220 Rocket 4.2 05:27:01 43° W 05:27:25 44° WNW 05:31:28 10° N
ADEOS Rocket 3.2 05:20:24 10° NNE 05:27:40 87° WNW 05:34:08 10° SSW
NOSS 3-2 (C) 4.1 05:20:25 10° NW 05:27:46 54° WSW 05:35:36 10° SSE
Cosmos 1892 Rocket 3.5 05:24:41 16° S 05:28:13 82° W 05:32:44 10° N
Cosmos 1937 Rocket 4.4 05:23:48 10° S 05:28:49 50° ESE 05:33:54 10° NNE
Cosmos 1980 4.2 05:28:04 10° NW 05:33:11 35° WSW 05:38:16 10° S
ADEOS II 2.2 05:28:01 10° NNE 05:33:19 77° ESE 05:38:35 10° S
PSLV R/B 3.4 05:30:52 10° NNE 05:35:14 85° W 05:39:31 10° SSW
SL-16 R/B 2.1 05:33:33 10° NNW 05:39:15 80° WSW 05:44:55 10° SSE
ASTRO F (AKARI) 4.2 05:38:42 10° S 05:41:47 57° WSW 05:44:59 10° NNW
Meteor 2-9 Rocket 4.2 05:36:49 10° NNW 05:42:24 64° W 05:48:05 10° S
OE (NEXTSAT) 4.4 05:41:19 31° WNW 05:42:57 85° NNE 05:46:35 10° ESE
Meteor PRIRODA 3.6 05:42:40 10° NNE 05:46:26 87° ESE 05:50:08 10° SSW
Cosmos 1000 Rocket 4.5 05:40:20 10° SSW 05:46:38 73° W 05:52:59 10° N
RESURS DK-1 3.1 05:46:01 28° W 05:47:10 33° WNW 05:50:57 10° N
Cosmos 2228 2.9 05:44:13 10° N 05:48:38 83° W 05:53:00 10° S
CZ-2D R/B 4.0 05:47:33 10° NW 05:49:09 12° WNW 05:49:09 12° WNW
Cosmos 2016 Rocket 4.0 05:43:40 10° N 05:50:03 85° W 05:56:19 10° S
Cosmos 1680 Rocket 4.3 05:45:44 10° NW 05:50:10 28° W 05:54:34 10° SSW
NOSS 3-4 (A) 4.2 05:48:17 21° W 05:51:51 37° NW 05:57:55 10° NNE
NOSS 3-4 (C) 4.2 05:48:21 21° W 05:51:56 37° NW 05:58:01 10° NNE
Cosmos 2227 Rocket 3.1 05:49:36 22° W 05:52:08 31° NW 05:57:08 10° N
Cosmos 1346 Rocket 3.4 05:51:14 23° SW 05:53:06 36° WNW 05:56:49 10° N
Cosmos 2173 Rocket 4.0 05:49:45 10° NNW 05:55:41 56° W 06:01:38 10° SSW
USA 129 1.7 05:54:16 10° SSE 05:56:13 65° ENE 05:58:01 10° N
Cosmos 2297 Rocket 2.9 05:57:49 18° WSW 06:01:26 35° WNW 06:06:35 10° N
OTV 4 2.6 06:01:46 11° SSW 06:01:46 11° SSW 06:02:45 10° S
Okean-O 2.7 05:59:16 10° N 06:03:36 53° WNW 06:07:54 10° SSW
Cosmos 1459 Rocket 4.2 05:57:54 10° NNW 06:03:58 47° W 06:09:58 10° SSW
Cosmos 2123 Rocket 4.0 06:01:15 10° S 06:07:26 89° W 06:13:39 10° N
Cosmos 2058 Rocket 3.6 06:03:39 10° NNW 06:07:38 35° W 06:11:36 10° SSW
Cosmos 2298 Rocket 4.3 06:06:13 10° SW 06:11:17 46° WNW 06:16:25 10° N
NOSS 8 (A) 4.3 06:09:26 10° SW 06:12:44 75° NW 06:16:16 10° NNE
CZ-4B R/B 3.7 06:10:25 10° N 06:14:21 73° WNW 06:18:07 10° SSW
Aureole 2 Rocket 2.8 06:15:36 10° NW 06:18:48 35° WSW 06:21:43 10° S
Thor Agena Rocket 4.4 06:15:04 10° SSW 06:19:31 27° W 06:24:00 10° NW
EXPRESS MD2 3.7 06:16:30 10° WNW 06:19:56 80° SSW 06:26:57 10° SE
COSMO-SKYMED 1 2.9 06:16:39 10° SSE 06:20:58 73° ENE 06:25:18 10° N
Cosmos 2150 Rocket 4.5 06:21:04 10° SW 06:25:51 38° WNW 06:30:41 10° N
Cosmos 1603 3.7 06:20:48 10° NNW 06:26:34 86° WSW 06:32:15 10° SSE
Meteor 1-31 Rocket 3.2 06:28:15 10° N 06:31:56 41° WNW 06:35:37 10° SW
Cosmos 990 Rocket 4.1 06:27:10 10° SSW 06:32:20 59° WNW 06:37:33 10° NNE
SeaSat 1 3.4 06:28:06 10° SE 06:32:53 53° ENE 06:37:41 10° NNW
Ariane Rocket 3.2 06:28:19 10° NNE 06:33:28 80° ESE 06:38:33 10° SSW
Lacrosse 5 rocket 4.0 06:32:37 10° NNW 06:33:55 11° N 06:35:12 10° NNE
Intercosmos 25 Rocket 3.5 06:31:27 10° N 06:34:59 84° W 06:40:06 10° S
Cosmos 2098 Rocket 3.9 06:34:46 10° NNW 06:38:10 28° W 06:42:15 10° SSW
Cosmos 2263 Rocket 4.1 06:34:11 10° S 06:39:11 35° ESE 06:44:13 10° NE
Cosmos 1626 Rocket 4.1 06:36:33 10° SW 06:40:37 37° WNW 06:44:40 10° N
